User: anonymous
Location: Marseilles
(40.7010°N, 83.3930°W)
Time: 04:45:25
(UTC-04:00)
Language:

Cosmos 1459 Rocket - Orbit

View from above orbital plane
View from above orbital plane
View from above satellite
View from above satellite

Ground track
Ground track

The orbit data is extracted from the following two-line orbital elements,

1 14059U 83042B   14105.81492112  .00000092  00000-0  76278-4 0  3107
2 14059 082.9746 201.6101 0041151 279.5266 213.3412 13.78440697556165
Epoch (UTC): 15 April 2014 19:33:29
Eccentricity: 0.0041151
inclination: 82.9746°
perigee height: 939 km
apogee height: 999 km
right ascension of ascending node: 201.6101°
argument of perigee: 279.5266°
revolutions per day: 13.78440697
mean anomaly at epoch: 213.3412°
orbit number at epoch: 55616

The dashed part of the orbit path shows where the satellite is in the earth's shadow,  

DLR